Ellensburg, WA

10:56 PM PST on February 22, 2018 (GMT -0800)
Bowers

Weather History for KELN - March, 2013

Change the Weather History Date:

Sunday, March 10, 2013

  Actual Average (KYKM) Record (KYKM)
Temperature  
Mean Temperature 48 °F -  
Max Temperature 54 °F 56 °F 69 °F (2005)
Min Temperature 39 °F 30 °F 4 °F (1951)
Degree Days  
Heating Degree Days 17    
Moisture  
Dew Point 30 °F    
Average Humidity 53    
Maximum Humidity 70    
Minimum Humidity 44    
Precipitation  
Precipitation 0.00 in - - ()
Sea Level Pressure  
Sea Level Pressure 30.33 in    
Wind  
Wind Speed 16 mph (NW)    
Max Wind Speed 31 mph    
Max Gust Speed 37 mph    
Visibility 10 miles    
Events      
Averages and records for this station are not official NWS values.
T = Trace of Precipitation, MM = Missing Value Source: NWS Daily Summary

Daily Weather History Graph

Daily Weather History Graph

Search for Another Location

Airport or City:

Trip Planner

Search our weather history database for the weather conditions in past years. The results will help you decide how hot, cold, wet, or windy it might be!

Date:

Astronomy

Mar. 10, 2013 Rise Set
Actual Time 7:24 AM PDT 7:01 PM PDT
Civil Twilight 6:53 AM PDT 7:31 PM PDT
Nautical Twilight 6:18 AM PDT 8:06 PM PDT
Astronomical Twilight 5:42 AM PDT 8:42 PM PDT
Moon 6:29 AM PDT (3/10) 6:14 PM PDT (3/10)
Length of Visible Light 12h 37m
Length of Day
11h 37m
Waning Crescent, 1% of the Moon is Illuminated
Mar 10
Waning Crescent
Mar 11
New
Mar 19
First Quarter
Mar 27
Full
Apr 2
Last Quarter

Hourly Weather History & Observations

Time (PDT) Temp. Windchill Dew Point Humidity Pressure Visibility Wind Dir Wind Speed Gust Speed Precip Events Conditions
1:53 AM 42.1 °F 35.7 °F 26.1 °F 53% 30.39 in 10.0 mi WNW 11.5 mph - N/A   Clear
3:53 AM 44.1 °F 37.7 °F 25.0 °F 47% 30.38 in 10.0 mi West 12.7 mph - N/A   Clear
5:53 AM 44.1 °F 36.8 °F 25.0 °F 47% 30.38 in 10.0 mi WNW 16.1 mph - N/A   Partly Cloudy
6:53 AM 44.1 °F 37.7 °F 25.0 °F 47% 30.38 in 10.0 mi NNW 12.7 mph - N/A   Scattered Clouds
7:53 AM 43.0 °F 39.5 °F 25.0 °F 49% 30.39 in 10.0 mi WNW 5.8 mph - N/A   Clear
8:53 AM 45.0 °F 39.7 °F 27.0 °F 49% 30.37 in 10.0 mi NW 10.4 mph - N/A   Overcast
9:53 AM 48.0 °F - 27.0 °F 44% 30.36 in 10.0 mi NW 11.5 mph - N/A   Overcast
10:53 AM 50.0 °F - 30.0 °F 46% 30.33 in 10.0 mi NW 19.6 mph 25.3 mph N/A   Mostly Cloudy
11:53 AM 50.0 °F - 32.0 °F 50% 30.33 in 10.0 mi WNW 23.0 mph - N/A   Mostly Cloudy
12:53 PM 54.0 °F - 33.1 °F 45% 30.31 in 10.0 mi WNW 25.3 mph 32.2 mph N/A   Mostly Cloudy
1:53 PM 51.1 °F - 32.0 °F 48% 30.29 in 10.0 mi NW 31.1 mph 36.8 mph N/A   Overcast
2:53 PM 52.0 °F - 32.0 °F 47% 30.29 in 10.0 mi NW 21.9 mph 34.5 mph N/A   Overcast
3:53 PM 53.1 °F - 33.1 °F 47% 30.29 in 10.0 mi NW 26.5 mph 34.5 mph N/A   Scattered Clouds
4:53 PM 51.1 °F - 33.1 °F 50% 30.29 in 10.0 mi NW 26.5 mph 34.5 mph N/A   Overcast
5:53 PM 48.9 °F - 33.1 °F 54% 30.28 in 10.0 mi NW 25.3 mph 32.2 mph N/A   Overcast
6:53 PM 46.9 °F - 32.0 °F 56% 30.29 in 10.0 mi NW 24.2 mph 29.9 mph N/A   Scattered Clouds
7:53 PM 44.1 °F 36.5 °F 32.0 °F 63% 30.30 in 10.0 mi NNW 17.3 mph - N/A   Partly Cloudy
8:53 PM 43.0 °F 35.4 °F 32.0 °F 65% 30.31 in 10.0 mi NNW 16.1 mph - N/A   Clear
9:53 PM 43.0 °F 35.4 °F 32.0 °F 65% 30.32 in 10.0 mi NNW 16.1 mph - N/A   Clear
10:53 PM 42.1 °F 34.2 °F 32.0 °F 67% 30.32 in 10.0 mi NNW 16.1 mph - N/A   Clear
12:53 AM 39.9 °F 34.5 °F 30.9 °F 70% 30.33 in 10.0 mi NNW 8.1 mph - N/A   Clear